Theta_e
344 344 344 343 343 342 341 341 340 340 342 341 342 342 341 339 340 339 339 340 338 338 337 336 336 337 338 338 339 338 336 335 330 328 330 333 335 335 334 333 334 335 336
343 344 344 345 344 343 342 342 342 341 341 341 341 341 341 342 342 341 339 341 338 337 337 337 336 339 339 339 336 336 335 334 331 327 328 329 331 332 329 327 329 331 332
343 344 345 345 344 343 342 343 342 342 340 339 340 340 340 340 341 341 340 339 338 338 338 337 338 338 338 337 337 336 335 336 333 330 326 328 329 328 325 325 325 326 330
343 342 342 344 345 344 343 343 343 342 340 339 339 339 340 340 341 340 340 339 338 336 337 337 337 338 339 338 337 337 335 334 332 329 327 327 328 328 327 322 319 322 325
341 341 341 343 345 344 343 341 340 339 339 339 338 339 338 338 337 339 338 338 336 334 335 337 336 337 335 336 337 337 336 333 330 327 325 325 324 324 324 324 321 321 321
332 332 331 340 343 342 339 338 338 339 338 338 337 337 337 337 328 328 335 336 335 333 333 335 337 336 334 330 331 332 336 333 329 327 324 325 327 328 325 324 320 319 320
329 329 331 332 339 338 337 336 337 336 336 337 338 337 336 337 325 323 328 335 333 333 334 335 334 334 331 334 329 330 329 328 329 331 326 327 328 330 328 325 323 322 323
327 327 330 332 338 335 334 335 336 336 334 335 336 334 337 337 323 319 324 334 332 332 332 334 334 333 332 333 336 335 333 332 331 330 330 331 332 329 329 328 326 324 321
328 326 330 339 335 333 332 331 333 334 334 335 333 331 332 334 319 316 322 328 327 330 332 333 333 333 323 322 333 334 333 333 322 323 322 321 321 322 327 327 322 320 319
332 333 335 342 335 333 333 332 334 332 331 330 330 327 322 330 316 313 320 328 326 327 330 331 323 330 316 315 333 331 329 329 331 331 330 325 323 324 322 332 327 322 322
331 329 330 335 335 334 330 328 325 328 328 325 325 325 326 327 330 311 315 328 327 325 328 328 330 315 309 308 316 332 329 329 326 330 329 329 329 328 328 329 331 328 324
328 326 324 324 329 331 328 328 326 325 324 325 323 323 325 328 319 310 311 317 321 326 327 329 326 308 306 306 317 313 310 320 329 327 325 326 327 326 328 328 329 330 332
325 325 322 321 322 323 325 325 324 323 321 322 322 322 324 331 331 311 311 314 315 325 328 322 312 303 304 309 307 307 311 323 326 326 327 327 327 329 330 329 329 330 329
318 321 324 321 320 324 322 323 324 322 321 322 324 326 329 331 325 319 318 319 316 321 316 317 314 314 313 315 314 314 320 320 320 320 321 323 319 319 324 328 323 323 324
316 317 319 321 324 325 325 317 319 323 317 323 324 327 329 326 323 315 315 321 324 319 316 318 319 319 319 320 321 320 320 318 314 314 316 316 316 316 319 322 323 323 323
316 316 316 318 320 324 325 318 303 301 298 297 300 314 327 312 306 304 303 304 304 306 321 321 319 322 322 321 322 322 322 319 320 318 316 317 318 319 321 321 321 320 320
315 316 316 317 320 319 320 323 321 309 299 296 295 298 307 307 302 301 302 302 301 308 323 322 323 322 321 322 325 323 321 322 323 318 317 318 319 319 317 317 317 317 316
313 309 316 318 320 320 320 323 321 317 316 309 300 299 300 299 299 299 299 302 311 316 324 322 322 322 322 322 322 319 317 317 317 315 314 314 315 315 314 314 314 313 311
312 314 316 318 320 318 321 320 317 313 310 309 310 302 301 298 298 297 301 320 319 318 319 319 320 322 320 318 318 317 317 317 317 315 314 317 317 316 313 313 313 306 309
313 311 312 316 318 318 320 319 317 316 315 314 313 312 313 314 315 315 316 317 318 319 318 318 319 318 317 315 315 314 314 315 316 317 315 316 315 315 313 312 312 311 311
312 312 312 315 317 318 321 320 318 318 318 316 316 313 304 317 316 316 317 318 320 319 316 317 317 315 314 314 313 310 311 311 312 312 311 312 313 311 312 312 309 307 307
311 312 313 314 316 317 319 322 320 319 319 318 316 310 303 316 314 313 314 314 314 313 311 309 310 311 311 310 309 307 306 306 309 310 309 309 309 308 308 308 307 307 306
311 312 313 314 315 313 317 319 320 320 319 318 318 316 315 313 312 311 310 310 309 308 307 307 304 304 304 304 305 306 305 303 304 307 307 306 306 306 307 307 306 306 305
312 312 313 312 313 315 315 315 317 311 318 317 316 314 313 313 312 311 310 308 306 304 303 302 301 299 297 296 296 296 295 296 297 298 301 305 305 303 305 304 304 303 303
313 314 313 312 313 312 313 313 315 315 314 313 313 312 312 312 310 309 307 306 304 299 298 296 296 296 295 295 294 293 287 284 293 290 300 301 300 302 302 302 302 300 297
311 313 313 313 314 314 314 313 313 313 312 312 312 312 311 309 307 306 306 304 299 297 296 295 295 294 293 292 291 286 284 284 291 288 295 295 294 293 293 292 292 292 292
Wind_Speed
10 9 9 9 9 7 6 5 4 2 2 3 3 3 3 4 4 4 4 5 7 6 5 5 5 4 3 3 4 5 5 4 4 0 1 3 3 5 3 3 3 3 4
11 10 10 9 9 8 7 6 5 5 3 4 4 4 4 5 5 6 6 6 7 7 7 6 7 3 5 4 3 4 4 4 4 5 3 4 4 3 3 4 3 3 3
9 8 8 9 8 7 7 5 7 6 5 5 6 6 7 7 7 7 7 6 7 6 5 6 8 6 5 3 4 4 3 3 4 4 3 2 2 3 3 3 3 3 2
6 7 8 9 8 7 7 7 6 6 5 5 5 6 6 6 8 8 7 6 7 6 5 6 6 7 6 5 4 5 5 4 4 3 3 2 2 3 4 4 3 1 2
3 2 5 8 9 6 7 7 6 9 7 7 7 8 10 9 7 8 7 7 6 6 5 5 5 5 6 6 3 4 4 4 3 3 2 2 2 2 5 3 3 3 1
7 7 5 10 7 10 11 12 12 12 15 12 11 11 10 6 13 15 10 7 7 6 6 6 5 7 6 6 8 8 6 7 5 4 3 4 5 4 3 6 3 3 3
8 4 15 19 12 11 11 13 13 10 7 11 12 9 9 9 8 9 11 6 6 7 6 5 5 5 7 5 3 7 7 7 2 4 4 4 5 6 7 6 4 3 3
9 8 10 22 18 11 13 12 10 8 10 10 7 9 8 6 10 12 12 7 6 6 6 7 7 7 7 6 5 6 5 5 2 2 3 3 4 5 7 6 6 5 3
6 4 8 18 16 14 15 13 12 10 10 9 3 5 8 7 14 16 12 6 6 6 6 6 7 8 7 8 6 7 6 4 4 4 2 3 6 7 6 6 5 5 2
5 5 9 9 12 14 12 12 6 7 7 4 2 3 5 5 9 15 14 7 7 5 5 5 9 8 11 9 6 6 5 4 6 5 4 5 5 5 7 6 7 6 3
7 7 7 7 4 3 2 1 2 3 3 5 6 5 6 9 9 11 14 9 7 6 6 4 4 10 11 11 6 5 3 6 6 5 4 3 2 3 5 6 6 5 5
3 3 4 2 3 1 1 3 4 4 6 8 7 7 6 8 11 16 20 13 10 8 7 4 5 10 11 10 7 8 9 4 4 4 3 3 3 3 3 4 6 6 3
8 4 1 2 2 3 3 5 4 5 6 7 6 7 8 8 8 16 18 15 14 7 5 7 10 10 12 8 10 10 9 4 4 3 3 2 2 2 3 3 5 5 5
10 10 6 4 4 2 1 3 4 5 6 6 5 7 6 6 5 8 8 6 9 7 9 7 6 6 5 8 7 6 4 5 4 3 2 2 1 1 2 3 2 2 3
12 12 11 8 8 5 2 2 4 4 3 5 5 4 2 4 6 10 12 8 7 9 9 6 5 5 7 5 5 5 4 3 3 3 3 2 2 2 1 1 2 2 2
8 8 8 7 6 6 6 2 4 1 3 5 6 5 2 2 14 16 11 14 13 15 6 5 6 5 5 5 4 3 4 5 3 3 2 2 1 1 1 1 1 1 1
6 4 5 6 6 5 5 5 6 5 9 12 11 7 11 9 15 16 17 15 15 9 4 5 4 4 4 4 5 3 2 3 5 4 4 3 3 2 1 1 2 2 2
8 6 3 5 6 5 4 5 2 2 3 3 7 8 7 16 12 15 17 15 6 3 4 5 5 4 4 4 4 5 5 4 5 5 5 4 4 4 3 4 4 4 4
7 6 7 5 4 6 5 3 3 4 4 2 2 6 11 16 11 10 11 9 8 5 4 5 5 6 6 5 5 5 6 5 6 6 4 5 5 5 5 4 5 6 6
6 9 6 6 4 4 4 2 3 4 3 4 4 3 2 7 5 7 6 5 8 6 6 6 6 6 7 7 7 7 6 5 5 6 6 6 5 4 5 3 3 3 4
5 7 8 5 5 3 4 2 3 3 3 3 4 5 9 5 7 4 7 3 6 7 7 7 7 7 7 7 7 6 6 6 6 6 5 5 5 5 5 5 6 5 5
5 5 5 5 4 2 3 1 3 2 3 4 3 4 11 5 7 6 6 5 6 7 7 7 5 6 7 7 6 6 6 6 6 6 6 6 6 6 5 5 4 4 3
5 6 5 4 3 3 2 3 1 3 4 5 5 6 6 6 6 6 7 6 7 8 7 7 8 8 7 7 6 6 7 6 5 4 5 5 5 4 3 3 3 2 1
5 5 5 4 5 5 4 2 2 5 6 6 6 5 6 5 7 9 8 7 8 7 7 8 8 11 9 8 6 6 6 5 4 4 4 4 4 4 4 4 3 3 2
5 5 5 4 4 5 5 5 5 6 7 7 7 7 7 7 7 6 7 7 8 8 9 8 8 10 11 11 9 8 6 4 5 4 4 5 6 6 5 4 4 4 4
4 4 4 3 3 4 5 5 6 5 6 6 6 5 7 8 7 6 8 8 8 8 10 7 8 11 10 8 8 8 6 5 6 6 6 5 6 5 4 5 6 4 4
Wind_Direction
176 184 180 191 192 182 173 190 201 199 216 241 211 207 230 228 215 215 223 219 213 209 210 207 227 214 218 205 208 219 216 190 229 64 193 207 182 167 130 112 97 86 80
170 176 196 200 189 181 176 183 164 192 192 211 199 202 221 235 223 229 234 228 228 228 228 213 228 212 241 222 201 198 184 177 166 214 178 191 196 172 141 125 119 102 104
165 169 198 207 187 179 165 170 172 174 187 177 184 196 204 214 216 223 222 221 221 226 231 225 225 200 218 205 201 182 195 199 187 181 183 147 160 140 115 88 84 64 74
153 171 200 210 183 182 167 170 184 169 181 195 190 213 218 215 209 214 223 229 233 223 220 225 236 220 203 194 197 179 164 177 181 180 175 169 154 145 144 143 118 89 115
138 41 273 227 173 151 140 139 155 151 163 203 212 211 204 196 207 221 206 211 224 236 225 233 216 228 222 192 178 183 170 176 165 161 143 158 170 155 167 148 128 146 165
116 73 16 321 160 156 151 157 174 197 181 178 206 215 207 209 203 198 196 204 189 206 214 224 207 188 211 200 198 186 188 193 171 159 153 176 181 153 134 156 130 149 191
81 44 47 334 252 177 169 181 195 209 202 199 206 187 203 212 205 207 202 198 194 204 200 204 202 189 191 204 190 188 164 172 134 182 185 182 181 174 154 159 158 148 180
123 114 91 247 241 191 180 203 201 209 217 208 208 192 195 203 192 207 194 185 197 200 209 204 205 197 191 184 163 150 149 159 173 192 201 204 203 161 167 173 165 137 99
15 243 217 234 210 186 194 194 211 218 225 221 202 183 188 205 196 185 174 173 177 210 198 219 208 194 181 177 165 161 150 146 97 172 217 162 164 161 145 129 146 150 145
358 288 289 231 206 203 202 203 231 271 262 291 280 182 199 230 214 191 174 178 178 184 200 215 199 187 165 178 176 165 166 159 156 136 120 96 140 167 175 187 160 169 136
326 328 325 331 293 263 123 153 245 251 221 241 250 224 205 217 222 199 205 182 185 174 189 183 197 164 167 171 180 174 186 151 143 137 136 127 140 168 181 192 184 180 171
322 346 335 357 322 3 157 202 245 256 263 256 232 233 223 226 223 192 192 195 177 169 188 175 173 157 149 154 167 154 141 140 140 144 147 156 165 196 214 215 214 217 220
337 343 325 281 269 267 259 262 260 236 245 253 229 234 232 223 207 181 196 184 164 158 170 167 151 148 133 121 128 132 137 131 140 170 171 188 180 160 160 188 221 232 240
3 358 348 346 330 325 272 264 246 261 255 248 240 244 241 225 163 166 172 176 158 123 127 130 136 142 124 127 125 142 151 153 152 160 184 166 208 156 160 169 177 194 216
360 356 351 345 334 327 301 323 295 269 282 262 250 258 220 175 184 177 147 159 169 146 125 124 144 158 147 150 140 142 142 151 142 144 181 176 177 190 208 134 180 184 197
356 342 338 333 338 328 305 228 44 298 13 359 297 239 268 180 148 140 150 144 143 141 135 158 168 168 150 154 153 150 155 163 152 157 141 149 147 153 143 113 72 66 74
330 339 327 308 312 322 320 293 253 186 137 74 9 278 186 161 156 153 152 147 150 140 156 164 164 155 148 152 153 134 115 100 124 127 120 125 106 88 107 94 82 42 56
328 304 311 319 305 322 321 305 302 290 329 360 40 29 222 151 150 144 138 120 130 122 148 136 131 122 119 120 113 110 101 98 98 101 96 89 89 91 94 81 69 94 92
323 326 326 314 323 335 342 4 41 48 46 19 28 47 74 79 79 111 165 131 130 120 118 113 123 128 113 107 109 110 119 117 117 110 99 96 93 95 82 85 89 81 85
314 312 313 312 315 342 340 32 62 55 55 60 47 35 56 103 87 66 44 90 113 109 102 101 99 99 107 110 108 105 101 91 92 103 107 106 107 114 108 104 98 99 83
316 317 315 321 319 330 332 296 137 120 85 68 80 83 63 81 75 59 82 68 91 109 101 98 108 115 116 119 119 106 106 104 96 93 91 94 101 97 87 99 97 100 101
307 300 310 319 337 306 277 301 151 119 125 107 73 67 83 76 85 82 82 87 85 91 96 101 103 102 106 108 113 109 105 102 100 103 99 94 98 98 93 98 106 106 84
304 317 325 340 335 2 262 256 101 169 126 101 89 84 80 93 93 94 93 91 84 85 94 101 101 92 84 79 76 88 99 91 85 93 109 112 116 121 121 109 102 95 67
332 341 353 13 25 52 59 51 34 88 107 101 90 90 97 93 101 102 99 94 94 87 89 89 91 104 100 91 87 87 93 97 95 90 109 117 111 112 115 122 114 113 111
358 5 27 39 59 64 56 56 57 86 92 93 97 99 99 100 103 100 104 101 100 101 94 99 101 105 104 103 96 94 95 87 96 115 112 110 103 102 98 93 87 92 72
8 16 26 36 46 69 74 76 79 85 95 102 104 112 119 118 111 122 113 112 117 114 107 102 105 108 106 97 98 102 104 109 109 103 116 112 110 106 100 100 97 102 95